Date String (YYYY-MM-DD hh:mm:ss) UTC,Instrument flags,Ambient pressure (hPa),Sample flow (lpm),Bypass flow (lpm),Sample temperature (°C),Ambient temperature (°C),ASC tube jacket temperature (°C),LED temperature (°C),Box temperature (°C),Sample RH (%),Span deviation,Mass concentration (μg/m³),Mass concentration (μg/m³),Mass concentration (μg/m³)
DateTimeUTC,F1_M11,P_M11,Q1_M11,Q2_M11,T1_M11,T2_M11,T3_M11,T4_M11,T5_M11,U1_M11,ZSPAN_M11,X2_M11,X0_M11,X1_M11
2022-12-27 18:00:00,,0813.9,5.01,0.00,24.1,22.9,00.0,32.9,25.9,10.5,0000.0,0000.31,0000.68,0000.17
2022-12-27 18:01:00,,0813.9,5.06,0.00,24.1,22.9,00.0,32.9,25.9,10.3,0000.0,0000.31,0000.73,0000.17
2022-12-27 18:02:00,,0814.1,5.01,0.00,24.1,22.9,00.0,32.9,25.9,10.7,0000.0,0000.32,0000.85,0000.17
2022-12-27 18:03:00,,0814.1,4.97,0.00,24.1,22.9,00.0,32.9,25.9,11.0,0000.0,0000.34,0000.93,0000.18
2022-12-27 18:04:00,,0814.0,4.98,0.00,24.1,22.9,00.0,32.9,26.0,11.5,0000.0,0000.35,0001.09,0000.19
2022-12-27 18:05:00,,0814.0,5.02,0.00,24.1,22.9,00.0,32.9,25.9,11.2,0000.0,0000.37,0001.32,0000.19
2022-12-27 18:06:00,,0814.0,5.03,0.00,24.1,22.9,00.0,32.9,25.9,10.8,0000.0,0000.39,0001.36,0000.20
2022-12-27 18:07:00,,0813.8,5.00,0.00,24.1,22.9,00.0,32.9,25.9,10.9,0000.0,0000.38,0001.31,0000.19
2022-12-27 18:08:00,,0813.5,5.01,0.00,24.1,22.8,00.0,32.9,25.9,10.4,0000.0,0000.31,0001.16,0000.16
2022-12-27 18:09:00,,0813.5,4.98,0.00,24.1,22.8,00.0,32.9,25.9,10.3,0000.0,0000.30,0001.50,0000.14
2022-12-27 18:10:00,,0813.4,4.99,0.00,24.1,22.8,00.0,32.9,25.9,10.5,0000.0,0000.30,0002.81,0000.15
2022-12-27 18:11:00,,0813.3,5.00,0.00,24.1,22.8,00.0,32.9,25.9,10.6,0000.0,0000.29,0002.91,0000.15
2022-12-27 18:12:00,,0813.5,5.02,0.00,24.1,22.8,00.0,32.9,25.9,10.7,0000.0,0000.28,0003.03,0000.15
2022-12-27 18:13:00,,0813.3,5.03,0.00,24.1,22.8,00.0,32.9,25.9,10.8,0000.0,0000.27,0002.94,0000.15
2022-12-27 18:14:00,,0813.3,4.99,0.00,24.1,22.8,00.0,32.9,25.8,10.5,0000.0,0000.26,0002.83,0000.15
2022-12-27 18:15:00,,0813.3,4.99,0.00,24.1,22.8,00.0,33.0,25.8,11.2,0000.0,0000.25,0002.75,0000.14
2022-12-27 18:16:00,,0813.3,4.98,0.00,24.1,22.9,00.0,33.0,25.9,10.8,0000.0,0000.24,0003.10,0000.13
2022-12-27 18:17:00,,0813.2,4.98,0.00,24.1,22.9,00.0,33.0,25.8,10.8,0000.0,0000.21,0003.03,0000.12
2022-12-27 18:18:00,,0813.2,5.06,0.00,24.2,22.9,00.0,33.0,25.8,11.3,0000.0,0000.21,0003.12,0000.12
2022-12-27 18:19:00,,0813.1,5.00,0.00,24.2,22.9,00.0,33.0,25.9,11.6,0000.0,0000.20,0003.32,0000.12
2022-12-27 18:20:00,,0813.2,5.02,0.00,24.2,22.9,00.0,33.0,25.9,11.4,0000.0,0000.23,0003.43,0000.13
2022-12-27 18:21:00,,0812.9,4.99,0.00,24.2,23.0,00.0,33.0,25.9,11.2,0000.0,0000.26,0003.53,0000.13
2022-12-27 18:22:00,,0812.8,4.98,0.00,24.2,23.0,00.0,33.0,25.9,11.3,0000.0,0000.29,0004.91,0000.14
2022-12-27 18:23:00,,0812.6,5.02,0.00,24.2,23.0,00.0,33.0,26.1,10.8,0000.0,0000.37,0008.06,0000.14
2022-12-27 18:24:00,,0812.7,4.98,0.00,24.2,23.0,00.0,33.0,26.1,10.1,0000.0,0000.44,0009.22,0000.15
2022-12-27 18:25:00,,0812.7,5.02,0.00,24.2,23.0,00.0,33.0,26.1,10.0,0000.0,0000.48,0009.66,0000.16
2022-12-27 18:26:00,,0812.8,4.97,0.00,24.2,22.9,00.0,33.0,26.0,09.9,0000.0,0000.48,0009.75,0000.16
2022-12-27 18:27:00,,0812.7,5.00,0.00,24.2,23.0,00.0,33.0,26.0,10.3,0000.0,0000.47,0009.43,0000.16
2022-12-27 18:28:00,,0812.8,4.99,0.00,24.2,23.0,00.0,33.0,26.0,10.4,0000.0,0000.50,0009.47,0000.16
2022-12-27 18:29:00,,0812.9,4.98,0.00,24.2,23.0,00.0,33.0,26.1,10.3,0000.0,0000.51,0009.42,0000.16
2022-12-27 18:30:00,,0812.9,4.97,0.00,24.2,23.0,00.0,33.0,26.1,10.2,0000.0,0000.52,0009.32,0000.16
2022-12-27 18:31:00,,0813.0,4.98,0.00,24.3,23.0,00.0,33.0,26.2,11.2,0000.0,0000.53,0009.29,0000.18
2022-12-27 18:32:00,,0813.0,5.01,0.00,24.3,23.0,00.0,33.1,26.2,11.0,0000.0,0000.53,0008.35,0000.20
2022-12-27 18:33:00,,0813.1,4.98,0.00,24.3,23.0,00.0,33.1,26.2,11.0,0000.0,0000.49,0006.70,0000.21
2022-12-27 18:34:00,,0813.2,5.03,0.00,24.3,23.1,00.0,33.1,26.1,11.6,0000.0,0000.47,0003.84,0000.24
2022-12-27 18:35:00,,0813.1,5.00,0.00,24.3,23.1,00.0,33.1,26.1,11.7,0000.0,0000.47,0002.06,0000.28
2022-12-27 18:36:00,,0813.2,4.96,0.00,24.3,23.1,00.0,33.1,26.0,11.5,0000.0,0000.44,0002.55,0000.29
2022-12-27 18:37:00,,0813.1,4.98,0.00,24.3,23.1,00.0,33.1,26.0,11.6,0000.0,0000.45,0002.42,0000.30
2022-12-27 18:38:00,,0813.3,5.01,0.00,24.3,23.1,00.0,33.1,26.1,11.3,0000.0,0000.47,0002.44,0000.32
2022-12-27 18:39:00,,0813.1,5.01,0.00,24.3,23.1,00.0,33.1,26.1,10.7,0000.0,0000.45,0002.39,0000.32
2022-12-27 18:40:00,,0812.8,5.03,0.00,24.3,23.1,00.0,33.1,26.2,10.1,0000.0,0002.43,0059.41,0000.41
2022-12-27 18:41:00,,0812.6,4.99,0.00,24.3,23.1,00.0,33.1,26.2,09.4,0000.0,0003.13,0081.73,0000.44
2022-12-27 18:42:00,,0812.6,4.99,0.00,24.3,23.1,00.0,33.1,26.2,09.7,0000.0,0003.11,0081.69,0000.42
2022-12-27 18:43:00,,0812.5,4.98,0.00,24.3,23.1,00.0,33.1,26.2,10.2,0000.0,0003.09,0081.69,0000.40
2022-12-27 18:44:00,,0812.4,4.99,0.00,24.4,23.1,00.0,33.1,26.2,09.9,0000.0,0003.08,0081.69,0000.38
2022-12-27 18:45:00,,0812.3,5.06,0.00,24.4,23.1,00.0,33.1,26.2,10.0,0000.0,0003.03,0081.63,0000.34
2022-12-27 18:46:00,,0812.3,5.00,0.00,24.3,23.0,00.0,33.1,26.2,09.8,0000.0,0002.97,0082.06,0000.30
2022-12-27 18:47:00,,0812.2,5.03,0.00,24.3,23.0,00.0,33.1,26.2,10.2,0000.0,0002.97,0081.44,0000.28
2022-12-27 18:48:00,,0812.1,5.00,0.00,24.3,23.0,00.0,33.1,26.2,09.6,0000.0,0002.96,0081.39,0000.28
2022-12-27 18:49:00,,0812.1,4.99,0.00,24.3,23.0,00.0,33.1,26.1,09.4,0000.0,0002.98,0081.45,0000.27
2022-12-27 18:50:00,,0812.0,4.99,0.00,24.3,22.9,00.0,33.1,26.1,09.6,0000.0,0002.99,0081.49,0000.26
2022-12-27 18:51:00,,0812.0,4.99,0.00,24.3,22.9,00.0,33.1,26.1,09.4,0000.0,0001.02,0025.34,0000.18
2022-12-27 18:52:00,,0811.9,5.00,0.00,24.3,22.9,00.0,33.1,26.1,09.5,0000.0,0000.31,0002.05,0000.14
2022-12-27 18:53:00,,0811.9,5.04,0.00,24.3,22.9,00.0,33.1,26.1,09.4,0000.0,0000.34,0002.96,0000.15
2022-12-27 18:54:00,,0811.9,4.98,0.00,24.3,22.9,00.0,33.1,26.1,09.7,0000.0,0000.32,0002.95,0000.15
2022-12-27 18:55:00,,0811.8,5.01,0.00,24.3,22.9,00.0,33.1,26.1,09.8,0000.0,0000.33,0003.53,0000.15
2022-12-27 18:56:00,,0811.8,5.01,0.00,24.3,22.9,00.0,33.1,26.1,09.1,0000.0,0000.34,0003.32,0000.15
2022-12-27 18:57:00,,0811.8,4.99,0.00,24.3,22.9,00.0,33.1,26.1,09.6,0000.0,0000.33,0002.94,0000.15
2022-12-27 18:58:00,,0811.7,4.99,0.00,24.3,22.9,00.0,33.1,26.1,09.5,0000.0,0000.30,0003.61,0000.15
2022-12-27 18:59:00,,0811.7,5.00,0.00,24.3,22.9,00.0,33.1,26.0,09.3,0000.0,0000.29,0003.58,0000.14
